[[[{"header":{"parameterUnit":"kt","parameterCategory":2,"dx":1,"dy":1,"la1":30.253999710083008,"la2":30.299108505249023,"lo1":-89.0895004272461,"lo2":-89.04439544677734,"nx":28,"ny":28,"refTime":"2022-09-22T21:00:00:Z","depth":"0","parameterNumber":2,"parameterNumberName":"U-component_of_CURRENTS"},"data":[0.0038,0.0322,0.0297,0.0477,0.0514,0.0589,0.0644,0.0813,0.1023,0.1477,0.1797,0.2042,0.2363,0.2715,0.2518,0.2269,0.1921,0.1855,0.1629,0.1734,0.168,0.1629,0.1592,0.2134,0.2135,0.1613,0.161,0.1608,-0.0321,-0.0278,-0.0001,0.0193,0.0299,0.0304,0.0518,0.06,0.0844,0.1224,0.1518,0.2057,0.2298,0.2152,0.2026,0.1827,0.1438,0.1651,0.1447,0.1365,0.1374,0.1342,0.184,0.184,0.184,0.1839,0.1839,0.1839,-0.0989,-0.0758,-0.057,-0.0298,-0.0116,0.0043,0.0214,0.0387,0.0654,0.0886,0.1129,0.1428,0.1731,0.1567,0.1347,0.1097,0.0887,0.1134,0.1093,0.0876,0.0796,0.0662,0.1116,0.1114,0.1111,0.1109,0.1107,0,-0.1524,-0.1481,-0.1223,-0.0914,-0.0669,-0.0434,-0.021,-0.0029,-0.0009,0.0228,0.0552,0.0761,0.0877,0.101,0.0866,0.079,0.0392,0.0516,0.0538,0.0725,0.0496,0.0497,0.0289,0.0683,0.0678,0.0674,0.0671,0.0669,-0.2178,-0.1968,-0.1682,-0.1497,-0.1351,-0.1054,-0.086,-0.0853,-0.0679,-0.0436,-0.023,-0.008,0.017,0.0318,0.0174,0.0192,0.0057,0.0387,0.0261,0.026,0.0281,0.0065,0.0008,0.0611,0.0618,0.0624,0.0629,0,-0.2474,-0.2468,-0.2118,-0.1903,-0.183,-0.1556,-0.1328,-0.1139,-0.1127,-0.0783,-0.0736,-0.0699,-0.0541,-0.0612,-0.044,-0.045,-0.0248,-0.0208,-0.0077,0.0023,0.0194,0.0148,0.0327,0.0299,0.0087,0.0091,0.0094,0,-0.2838,-0.2649,-0.2511,-0.2299,-0.2015,-0.1991,-0.1693,-0.1653,-0.1511,-0.1232,-0.1378,-0.1102,-0.1183,-0.0998,-0.0988,-0.0717,-0.0691,-0.0612,-0.0518,-0.0383,-0.0366,-0.0224,-0.0256,-0.0621,-0.0624,-0.0626,-0.0628,0,-0.2934,-0.2857,-0.2642,-0.2561,-0.2322,-0.2221,-0.2135,-0.196,-0.179,-0.1705,-0.1547,-0.1472,-0.1284,-0.1212,-0.1088,-0.1158,-0.0804,-0.0832,-0.0634,-0.0626,-0.0347,-0.0322,-0.0088,-0.0632,-0.0633,-0.0634,-0.0635,0,-0.3099,-0.2953,-0.2785,-0.2532,-0.2483,-0.2405,-0.2133,-0.2083,-0.1916,-0.1855,-0.1748,-0.1641,-0.1521,-0.1564,-0.131,-0.1408,-0.1278,-0.1181,-0.1162,-0.1036,-0.0974,-0.051,-0.0354,-0.0305,-0.0937,-0.0941,-0.0944,0,-0.3036,-0.2911,-0.2889,-0.2742,-0.2589,-0.2503,-0.2432,-0.2288,-0.2182,-0.2017,-0.1922,-0.1748,-0.1801,-0.169,-0.1641,-0.1461,-0.1368,-0.1533,-0.1113,-0.1101,-0.103,-0.0953,-0.0756,-0.0427,-0.099,-0.0985,-0.0981,0,-0.2942,-0.2803,-0.28,-0.2659,-0.2572,-0.2461,-0.2454,-0.2303,-0.2179,-0.2135,-0.1968,-0.1894,-0.1797,-0.172,-0.1629,-0.156,-0.1435,-0.1515,-0.1504,-0.1371,-0.1099,-0.1024,-0.0985,-0.1372,-0.1368,-0.1365,-0.1018,0,-0.271,-0.2673,-0.2695,-0.26,-0.2535,-0.2512,-0.2375,-0.2326,-0.2241,-0.2131,-0.1992,-0.1886,-0.172,-0.1716,-0.1669,-0.1556,-0.1498,-0.1461,-0.1407,-0.1415,-0.1263,-0.1235,-0.1537,-0.1535,-0.1533,-0.1532,0,0,-0.2585,-0.2564,-0.2481,-0.2463,-0.2395,-0.229,-0.2262,-0.2207,-0.2085,-0.2004,-0.2012,-0.1777,-0.1709,-0.156,-0.1589,-0.1546,-0.1443,-0.1543,-0.1435,-0.1425,-0.1415,-0.1271,-0.1246,-0.1529,-0.1528,-0.1528,-0.1527,0,-0.2479,-0.2437,-0.2467,-0.2401,-0.2321,-0.2237,-0.2238,-0.2125,-0.2069,-0.2,-0.1881,-0.18,-0.1686,-0.1582,-0.1515,-0.153,-0.1402,-0.1518,-0.1574,-0.1426,-0.1419,-0.1411,-0.1269,-0.1247,-0.1523,-0.1523,-0.1523,0,-0.2334,-0.2272,-0.2284,-0.221,-0.2159,-0.2123,-0.2033,-0.202,-0.1976,-0.1844,-0.1787,-0.1698,-0.1576,-0.1517,-0.1489,-0.1469,-0.1352,-0.1427,-0.1434,-0.1433,-0.1276,-0.1269,-0.1263,-0.1335,-0.1334,-0.1334,0,0,-0.2248,-0.2252,-0.214,-0.2179,-0.2152,-0.2045,-0.2024,-0.1965,-0.1884,-0.1856,-0.1763,-0.1669,-0.158,-0.154,-0.1463,-0.1418,-0.1315,-0.1408,-0.1417,-0.1424,-0.1428,-0.1275,-0.1269,-0.1333,-0.1333,-0.1333,0,0,-0.2212,-0.2107,-0.2059,-0.2091,-0.2029,-0.1919,-0.1944,-0.1872,-0.1807,-0.1804,-0.1674,-0.1648,-0.1594,-0.1533,-0.1535,-0.1451,-0.141,-0.1408,-0.1495,-0.1505,-0.1513,-0.1536,-0.1449,0,0,0,0,0,-0.2057,-0.2115,-0.2073,-0.2064,-0.198,-0.1933,-0.1919,-0.1851,-0.1813,-0.1828,-0.1731,-0.1673,-0.151,-0.1508,-0.1485,-0.1486,-0.1323,-0.1325,-0.1327,-0.1427,-0.1438,-0.1448,0,0,0,0,0,0,-0.2053,-0.2043,-0.2071,-0.1967,-0.1947,-0.193,-0.1852,-0.1833,-0.1811,-0.1804,-0.169,-0.1669,-0.1586,-0.1514,-0.1494,-0.1498,-0.1456,-0.1324,-0.1325,-0.1327,-0.1431,-0.144,-0.1448,0,0,0,0,0,-0.205,-0.2041,-0.1936,-0.1964,-0.1947,-0.1861,-0.1852,-0.1835,-0.1817,-0.1696,-0.1675,-0.1774,-0.1588,-0.1565,-0.1502,-0.1509,-0.1469,-0.1462,-0.1325,-0.1326,-0.1327,-0.1436,0,0,0,0,0,0,-0.2047,-0.201,-0.193,-0.192,-0.1966,-0.1862,-0.1847,-0.1838,-0.1708,-0.1689,-0.1773,-0.1768,-0.1589,-0.1571,-0.1554,-0.1519,-0.148,-0.1472,-0.1468,-0.1326,-0.1327,-0.1328,0,0,0,0,0,0,-0.2014,-0.2003,-0.1925,-0.1931,-0.1922,-0.1862,-0.1849,-0.1777,-0.1706,-0.179,-0.1783,-0.1772,-0.161,-0.1576,-0.1562,-0.1451,-0.1488,-0.1481,-0.1476,-0.1473,-0.1327,-0.1327,0,0,0,0,0,0,-0.2007,-0.1998,-0.1933,-0.1926,-0.1917,-0.1804,-0.1794,-0.1709,-0.173,-0.1796,-0.1729,-0.1728,-0.1616,-0.1601,-0.1568,-0.1463,-0.1454,-0.1488,-0.1483,-0.148,-0.1477,0,0,0,0,0,0,0,-0.2002,-0.2093,-0.199,-0.1921,-0.1914,-0.1836,-0.1833,-0.183,-0.173,-0.1729,-0.1729,-0.1728,-0.1527,-0.152,-0.1512,-0.1473,0,0,-0.1488,-0.1485,0,0,0,0,0,0,0,0,-0.2094,-0.2093,-0.199,-0.1988,-0.1987,-0.1835,-0.1833,-0.183,-0.173,-0.1729,-0.1729,-0.1729,-0.1525,-0.1519,-0.1513,0,0,0,0,0,0,0,0,0,0,0,0,0,0,0,-0.199,-0.1989,0,-0.1835,-0.1833,-0.1831,-0.173,-0.1729,-0.1729,-0.1729,-0.1524,-0.1519,-0.1513,0,0,0,0,0,0,0,0,0,0,0,0,0,0,0,0,0,0,0,0,0,0,0,0,0,0,0,0,0,0,0,0,0,0,0,0,0,0,0,0,0,0,0,0,0,0,0,0,0,0,0,0,0,0,0,0,0,0,0,0,0,0,0,0,0,0,0,0,0]}],[{"header":{"parameterUnit":"kt","parameterCategory":2,"dx":1,"dy":1,"la1":30.253999710083008,"la2":30.299108505249023,"lo1":-89.0895004272461,"lo2":-89.04439544677734,"nx":28,"ny":28,"refTime":"2022-09-22T21:00:00:Z","depth":"0","parameterNumber":3,"parameterNumberName":"V-component_of_CURRENTS"},"data":[0.1916,0.2219,0.2398,0.2849,0.3088,0.3333,0.3406,0.346,0.3486,0.3588,0.3644,0.3656,0.325,0.1756,0.0812,0.0583,0.027,0.0062,-0.0125,0.0374,0.039,0.0406,0.0419,0.0241,0.024,-0.048,-0.0487,-0.0492,0.1813,0.2025,0.235,0.2714,0.2971,0.3052,0.3219,0.3267,0.3315,0.3346,0.3314,0.3209,0.2584,0.1942,0.113,0.0728,0.0501,0.0503,0.0373,0.0332,0.0828,0.0861,0.0775,0.0775,0.0775,0.0775,0.0775,0.0775,0.1659,0.1852,0.2124,0.2455,0.2693,0.2898,0.3018,0.3083,0.3152,0.3133,0.305,0.2964,0.2513,0.1712,0.1306,0.0734,0.0599,0.0741,0.0588,0.0409,0.0343,0.0801,0.0715,0.0713,0.0712,0.0712,0.0711,0,0.1536,0.1635,0.1857,0.2205,0.2414,0.2617,0.2763,0.2822,0.2779,0.2799,0.277,0.267,0.2172,0.1796,0.1236,0.1019,0.068,0.0797,0.073,0.0791,0.0568,0.0489,0.1013,0.0971,0.0971,0.0971,0.0972,0.0972,0.1344,0.1484,0.1788,0.1962,0.2086,0.2269,0.2391,0.2386,0.2436,0.2389,0.2432,0.219,0.2068,0.1618,0.1216,0.0857,0.0753,0.0813,0.0892,0.0802,0.0645,0.0464,0.0412,0.0975,0.0974,0.0974,0.0974,0,0.1243,0.1349,0.1601,0.1796,0.1861,0.2011,0.2141,0.2217,0.2161,0.2217,0.2205,0.1996,0.1773,0.1455,0.1257,0.1118,0.0855,0.0913,0.099,0.0977,0.0822,0.0695,0.0366,0.0288,0.0775,0.0773,0.077,0,0.1126,0.1275,0.1451,0.1582,0.1779,0.1782,0.1914,0.1926,0.1891,0.195,0.1752,0.1771,0.1509,0.1363,0.123,0.1068,0.1108,0.1034,0.1009,0.1107,0.1105,0.1033,0.091,0.1132,0.1133,0.1134,0.1135,0,0.102,0.1197,0.1376,0.1432,0.1589,0.1638,0.169,0.1651,0.169,0.1609,0.1627,0.1481,0.1477,0.1371,0.1231,0.1255,0.1125,0.1157,0.1047,0.1039,0.1094,0.109,0.1033,0.1136,0.1137,0.1137,0.1137,0,0.0948,0.1089,0.1261,0.144,0.1473,0.1522,0.1579,0.1588,0.1518,0.1497,0.1437,0.1372,0.1324,0.132,0.1229,0.1249,0.1219,0.1197,0.1193,0.1098,0.1074,0.107,0.107,0.1011,0.1113,0.1114,0.1114,0,0.0897,0.1075,0.1105,0.1247,0.1358,0.1348,0.1357,0.1356,0.1333,0.1329,0.1276,0.1292,0.1246,0.1276,0.1255,0.1222,0.1216,0.1248,0.1166,0.1162,0.1091,0.1082,0.1179,0.1079,0.1121,0.112,0.1119,0,0.0852,0.1033,0.1041,0.1147,0.1184,0.1237,0.1219,0.1251,0.1277,0.1248,0.1259,0.1248,0.1233,0.1227,0.1221,0.123,0.122,0.1216,0.1215,0.1166,0.1182,0.1099,0.1086,0.1242,0.1242,0.1242,0.1125,0,0.0941,0.1005,0.1027,0.1109,0.1127,0.1179,0.1191,0.1198,0.1202,0.12,0.1198,0.1186,0.1186,0.119,0.1181,0.1197,0.1165,0.1176,0.1169,0.1189,0.113,0.1127,0.116,0.1159,0.1158,0.1158,0,0,0.0896,0.0979,0.0998,0.105,0.1089,0.1102,0.1153,0.1147,0.1168,0.1169,0.1162,0.1155,0.1145,0.1153,0.1165,0.1154,0.1131,0.1158,0.1178,0.118,0.1182,0.1128,0.1126,0.1157,0.1156,0.1156,0.1156,0,0.0943,0.0956,0.0992,0.1025,0.1079,0.11,0.1111,0.1147,0.1149,0.1156,0.1148,0.1149,0.1133,0.1136,0.1132,0.1145,0.1116,0.1142,0.1172,0.1172,0.1175,0.1178,0.1126,0.1124,0.1154,0.1154,0.1154,0,0.0954,0.0994,0.1001,0.1046,0.107,0.1107,0.1108,0.1134,0.115,0.1132,0.1139,0.1128,0.1113,0.1115,0.1113,0.111,0.1103,0.1112,0.1115,0.111,0.1109,0.1113,0.1117,0.1072,0.1072,0.1072,0,0,0.0983,0.1009,0.1052,0.1054,0.1075,0.1101,0.1113,0.1129,0.1138,0.1139,0.1132,0.1123,0.1114,0.1113,0.1097,0.1096,0.1073,0.1104,0.1108,0.1111,0.1108,0.1108,0.1112,0.1072,0.1072,0.1072,0,0,0.0989,0.1047,0.1058,0.1066,0.1094,0.1122,0.1129,0.114,0.1139,0.1139,0.1126,0.1123,0.1116,0.1105,0.1102,0.1106,0.1088,0.1087,0.1123,0.1127,0.1131,0.1132,0.1093,0,0,0,0,0,0.1046,0.1044,0.1053,0.1059,0.1089,0.1117,0.1121,0.1139,0.1141,0.1146,0.1138,0.1129,0.1106,0.1104,0.1098,0.1113,0.1067,0.1068,0.1069,0.1112,0.1117,0.1121,0,0,0,0,0,0,0.1048,0.1055,0.1054,0.1082,0.1089,0.1117,0.1122,0.1126,0.1141,0.1143,0.1132,0.1129,0.112,0.1105,0.11,0.1115,0.1094,0.1067,0.1068,0.1069,0.1114,0.1118,0.1121,0,0,0,0,0,0.105,0.1056,0.1099,0.1082,0.1088,0.1115,0.1122,0.1125,0.1134,0.1128,0.1126,0.1149,0.112,0.1115,0.1102,0.1118,0.1097,0.1096,0.1068,0.1068,0.1069,0.1116,0,0,0,0,0,0,0.1052,0.1051,0.11,0.1103,0.1085,0.1114,0.1118,0.1125,0.1116,0.1117,0.1143,0.1144,0.112,0.1116,0.1113,0.1121,0.11,0.1098,0.1097,0.1068,0.1069,0.1069,0,0,0,0,0,0,0.1049,0.1053,0.1102,0.1105,0.1108,0.1112,0.1117,0.1097,0.1114,0.1131,0.1133,0.1143,0.1115,0.1117,0.1114,0.1084,0.1102,0.11,0.1099,0.1098,0.1069,0.1069,0,0,0,0,0,0,0.1051,0.1055,0.1104,0.1106,0.1109,0.1138,0.1093,0.1114,0.1147,0.1129,0.1148,0.1149,0.1115,0.1113,0.1115,0.1086,0.1084,0.1102,0.1101,0.11,0.11,0,0,0,0,0,0,0,0.1053,0.1025,0.109,0.1108,0.111,0.113,0.113,0.113,0.1147,0.1148,0.1148,0.1149,0.1112,0.111,0.1108,0.1088,0,0,0.1102,0.1101,0,0,0,0,0,0,0,0,0.1024,0.1024,0.109,0.1091,0.1091,0.113,0.113,0.113,0.1147,0.1148,0.1148,0.1148,0.1111,0.111,0.1108,0,0,0,0,0,0,0,0,0,0,0,0,0,0,0,0.109,0.1091,0,0.113,0.113,0.113,0.1147,0.1148,0.1148,0.1148,0.1111,0.111,0.1108,0,0,0,0,0,0,0,0,0,0,0,0,0,0,0,0,0,0,0,0,0,0,0,0,0,0,0,0,0,0,0,0,0,0,0,0,0,0,0,0,0,0,0,0,0,0,0,0,0,0,0,0,0,0,0,0,0,0,0,0,0,0,0,0,0,0,0,0,0]}]],[[{"header":{"parameterUnit":"kt","parameterCategory":2,"dx":1,"dy":1,"la1":30.253999710083008,"la2":30.299108505249023,"lo1":-89.0895004272461,"lo2":-89.04439544677734,"nx":28,"ny":28,"refTime":"2022-09-22T21:00:00:Z","depth":"2","parameterNumber":2,"parameterNumberName":"U-component_of_CURRENTS"},"data":[-0.236,-0.2188,-0.2167,-0.1828,-0.174,-0.1451,-0.1304,-0.1055,-0.0771,-0.0297,0.0041,0.0304,0.0328,0.0544,0.0553,0.0629,0.0378,0.0629,0.0341,0.0094,0.0046,-0.0111,-0.0075,0,0,0,0,0,-0.2526,-0.2489,-0.2413,-0.2259,-0.2069,-0.2106,-0.1882,-0.1677,-0.1347,-0.0987,-0.0663,-0.0261,0.0078,0.0178,0.043,0.0472,0.0361,0.0398,0.0223,0.0173,0.0126,0.0178,0.063,0.063,0.0631,0.0631,0,0,-0.2777,-0.274,-0.2678,-0.2579,-0.2479,-0.231,-0.2167,-0.2008,-0.1777,-0.1373,-0.1325,-0.0876,-0.0713,-0.0106,-0.0026,0.0038,-0.0054,-0.0104,-0.0132,-0.0166,-0.0116,-0.0073,0.0252,0.025,0.0248,0.0247,0.0245,0,-0.2892,-0.2896,-0.288,-0.2799,-0.2711,-0.2613,-0.2473,-0.2377,-0.2228,-0.2046,-0.172,-0.1496,-0.1077,-0.0713,-0.0446,-0.0357,-0.063,-0.0449,-0.0856,-0.0628,-0.06,-0.0576,-0.0609,-0.0382,-0.0388,-0.0392,-0.0395,-0.0398,-0.2907,-0.2952,-0.2952,-0.2899,-0.2883,-0.2832,-0.2722,-0.266,-0.2524,-0.2273,-0.2123,-0.184,-0.1543,-0.1199,-0.098,-0.0785,-0.0964,-0.0595,-0.0636,-0.1004,-0.0974,-0.0993,-0.1009,-0.0459,-0.0451,-0.0445,-0.044,0,-0.2863,-0.2913,-0.2955,-0.2952,-0.2925,-0.2907,-0.2765,-0.2675,-0.2601,-0.2393,-0.2334,-0.2112,-0.1845,-0.1709,-0.1512,-0.142,-0.1249,-0.1136,-0.1006,-0.0938,-0.1048,-0.1055,-0.087,-0.0861,-0.0854,-0.0848,-0.0843,0,-0.2801,-0.2841,-0.2861,-0.2892,-0.2882,-0.2854,-0.2795,-0.273,-0.2606,-0.2448,-0.2382,-0.2197,-0.2078,-0.1892,-0.1805,-0.1509,-0.1607,-0.1338,-0.1286,-0.1191,-0.1164,-0.1561,-0.1565,-0.1538,-0.1539,-0.154,-0.154,0,-0.2702,-0.2743,-0.2819,-0.282,-0.2791,-0.278,-0.2736,-0.2623,-0.2535,-0.2444,-0.234,-0.2247,-0.2095,-0.2026,-0.1787,-0.1823,-0.1586,-0.1625,-0.1358,-0.1343,-0.1195,-0.1165,-0.1541,-0.1542,-0.1542,-0.1542,-0.1543,0,-0.2617,-0.2655,-0.2729,-0.2727,-0.2725,-0.2704,-0.2638,-0.2589,-0.2461,-0.2397,-0.2307,-0.2189,-0.2063,-0.2014,-0.1838,-0.1868,-0.1773,-0.1677,-0.167,-0.1467,-0.1419,-0.1225,-0.1082,-0.1578,-0.1579,-0.158,-0.1581,0,-0.2552,-0.262,-0.26,-0.2623,-0.2653,-0.2577,-0.2531,-0.2459,-0.2381,-0.2306,-0.2188,-0.2087,-0.2018,-0.1952,-0.1902,-0.1762,-0.172,-0.1765,-0.1648,-0.1644,-0.1491,-0.139,-0.1248,-0.1112,-0.1592,-0.1591,-0.159,0,-0.2497,-0.2521,-0.252,-0.2545,-0.2503,-0.2487,-0.2432,-0.2394,-0.2359,-0.2248,-0.2217,-0.2052,-0.1994,-0.194,-0.1848,-0.1796,-0.1733,-0.1754,-0.1752,-0.174,-0.1642,-0.1431,-0.1403,-0.1719,-0.1719,-0.1718,-0.1599,0,-0.2484,-0.2497,-0.2491,-0.2494,-0.2466,-0.2462,-0.2404,-0.2346,-0.2292,-0.2251,-0.214,-0.2019,-0.1937,-0.1871,-0.1819,-0.1752,-0.1728,-0.1721,-0.1755,-0.172,-0.1664,-0.1658,-0.1733,-0.1732,-0.1732,-0.1732,0,0,-0.2454,-0.2485,-0.2441,-0.2451,-0.2451,-0.2388,-0.2405,-0.2348,-0.227,-0.2243,-0.2204,-0.2029,-0.1945,-0.186,-0.182,-0.1766,-0.1738,-0.1791,-0.1721,-0.172,-0.1719,-0.1667,-0.1661,-0.1731,-0.1731,-0.1731,-0.1731,0,-0.247,-0.2441,-0.2449,-0.2434,-0.2413,-0.2395,-0.2385,-0.2345,-0.2308,-0.2233,-0.217,-0.2077,-0.1953,-0.1894,-0.1851,-0.1769,-0.1751,-0.1725,-0.1753,-0.1719,-0.1719,-0.1718,-0.1667,-0.1662,-0.173,-0.173,-0.173,0,-0.2471,-0.2472,-0.2464,-0.2451,-0.243,-0.2424,-0.2408,-0.2373,-0.2356,-0.2287,-0.2205,-0.2121,-0.2036,-0.194,-0.1888,-0.19,-0.1778,-0.1798,-0.1796,-0.1822,-0.1788,-0.1786,-0.1785,-0.1817,-0.1818,-0.1819,0,0,-0.2486,-0.2477,-0.2472,-0.2456,-0.2446,-0.2424,-0.2405,-0.2387,-0.2333,-0.2301,-0.2232,-0.2147,-0.2066,-0.2018,-0.1935,-0.1852,-0.1838,-0.1813,-0.1809,-0.1806,-0.1829,-0.1795,-0.1792,-0.1822,-0.1822,-0.1822,0,0,-0.2489,-0.2489,-0.2487,-0.2474,-0.2454,-0.2433,-0.2404,-0.2393,-0.2318,-0.2298,-0.224,-0.2215,-0.2106,-0.2063,-0.2107,-0.195,-0.1961,-0.195,-0.1997,-0.1991,-0.1987,-0.2039,-0.21,0,0,0,0,0,-0.2507,-0.2495,-0.2495,-0.2492,-0.2466,-0.2441,-0.2433,-0.2403,-0.2394,-0.2369,-0.2293,-0.2278,-0.2068,-0.2105,-0.2084,-0.2051,-0.1858,-0.1851,-0.1845,-0.1884,-0.1878,-0.1873,0,0,0,0,0,0,-0.2506,-0.2505,-0.2495,-0.248,-0.2473,-0.2442,-0.2437,-0.2427,-0.2395,-0.239,-0.2294,-0.2276,-0.2234,-0.2114,-0.2095,-0.2065,-0.2106,-0.1855,-0.185,-0.1845,-0.1882,-0.1877,-0.1873,0,0,0,0,0,-0.2506,-0.2505,-0.2475,-0.2478,-0.2472,-0.2435,-0.2436,-0.2428,-0.2391,-0.2325,-0.2308,-0.2368,-0.2236,-0.2214,-0.2102,-0.2075,-0.2119,-0.2112,-0.1852,-0.1847,-0.1844,-0.1879,0,0,0,0,0,0,-0.2505,-0.2485,-0.2472,-0.2469,-0.2477,-0.2434,-0.2428,-0.2429,-0.2326,-0.2312,-0.2399,-0.2396,-0.2237,-0.222,-0.2204,-0.2081,-0.213,-0.2123,-0.2118,-0.1849,-0.1845,-0.1842,0,0,0,0,0,0,-0.2485,-0.2482,-0.247,-0.2471,-0.2467,-0.2433,-0.2428,-0.2357,-0.2322,-0.2402,-0.2399,-0.2398,-0.2241,-0.2224,-0.2211,-0.2102,-0.2138,-0.2131,-0.2126,-0.2123,-0.1846,-0.1843,0,0,0,0,0,0,-0.2483,-0.248,-0.2472,-0.2468,-0.2465,-0.2416,-0.2365,-0.2323,-0.2376,-0.2405,-0.2375,-0.2374,-0.2245,-0.2232,-0.2216,-0.2114,-0.2105,-0.2138,-0.2133,-0.213,-0.2128,0,0,0,0,0,0,0,-0.2481,-0.2514,-0.25,-0.2466,-0.2463,-0.2435,-0.2434,-0.2432,-0.2376,-0.2375,-0.2375,-0.2375,-0.2177,-0.2169,-0.2162,-0.2123,0,0,-0.2138,-0.2135,0,0,0,0,0,0,0,0,-0.2514,-0.2514,-0.25,-0.25,-0.2499,-0.2435,-0.2434,-0.2432,-0.2376,-0.2375,-0.2375,-0.2375,-0.2175,-0.2169,-0.2163,0,0,0,0,0,0,0,0,0,0,0,0,0,0,0,-0.25,-0.25,0,-0.2435,-0.2434,-0.2433,-0.2376,-0.2375,-0.2375,-0.2375,-0.2173,-0.2168,-0.2163,0,0,0,0,0,0,0,0,0,0,0,0,0,0,0,0,0,0,0,0,0,0,0,0,0,0,0,0,0,0,0,0,0,0,0,0,0,0,0,0,0,0,0,0,0,0,0,0,0,0,0,0,0,0,0,0,0,0,0,0,0,0,0,0,0,0,0,0,0]}],[{"header":{"parameterUnit":"kt","parameterCategory":2,"dx":1,"dy":1,"la1":30.253999710083008,"la2":30.299108505249023,"lo1":-89.0895004272461,"lo2":-89.04439544677734,"nx":28,"ny":28,"refTime":"2022-09-22T21:00:00:Z","depth":"2","parameterNumber":3,"parameterNumberName":"V-component_of_CURRENTS"},"data":[-0.1305,-0.1193,-0.1135,-0.0874,-0.0723,-0.0468,-0.0326,-0.0179,-0.0111,-0.0004,-0.0002,-0.0025,-0.0211,-0.0373,-0.0507,-0.0606,-0.0576,-0.0638,-0.0475,-0.0451,-0.0438,-0.0484,-0.0471,0,0,0,0,0,-0.1339,-0.1246,-0.1138,-0.0948,-0.0801,-0.0711,-0.0514,-0.0386,-0.0184,-0.0138,-0.001,-0.011,-0.0194,-0.031,-0.041,-0.0483,-0.0472,-0.0595,-0.0596,-0.0582,-0.057,-0.057,-0.0706,-0.0707,-0.0707,-0.0708,0,0,-0.1377,-0.1314,-0.1165,-0.1028,-0.0893,-0.0733,-0.0614,-0.047,-0.0318,-0.0129,-0.0129,-0.0046,-0.0154,-0.0179,-0.0273,-0.0358,-0.0301,-0.0432,-0.0427,-0.042,-0.0414,-0.0433,-0.0507,-0.0507,-0.0506,-0.0505,-0.0504,0,-0.1378,-0.1309,-0.1187,-0.1047,-0.0926,-0.0785,-0.0629,-0.0578,-0.0382,-0.0291,-0.0159,-0.0102,-0.0081,-0.0119,-0.017,-0.0221,-0.0305,-0.0341,-0.0219,-0.0337,-0.0357,-0.0368,-0.036,-0.0415,-0.0414,-0.0413,-0.0412,-0.0412,-0.137,-0.1303,-0.1094,-0.1014,-0.0904,-0.0768,-0.0666,-0.0505,-0.0412,-0.0258,-0.0215,-0.0153,-0.0083,-0.0116,-0.0119,-0.016,-0.0172,-0.0306,-0.0297,-0.0197,-0.0209,-0.0206,-0.0203,-0.0396,-0.0398,-0.0399,-0.0401,0,-0.1348,-0.1218,-0.1076,-0.086,-0.0804,-0.0718,-0.0531,-0.0453,-0.0336,-0.0244,-0.0213,-0.0104,-0.0081,-0.0082,-0.0086,-0.0117,-0.0149,-0.0161,-0.0236,-0.0258,-0.0198,-0.0197,-0.0228,-0.0229,-0.023,-0.0231,-0.0231,0,-0.1253,-0.116,-0.0952,-0.0885,-0.0768,-0.0605,-0.0502,-0.0395,-0.0279,-0.0211,-0.0132,-0.0091,-0.006,-0.0062,-0.0077,-0.011,-0.0098,-0.0121,-0.0137,-0.0191,-0.0198,-0.0123,-0.0127,-0.0089,-0.0089,-0.0088,-0.0088,0,-0.1224,-0.1024,-0.0915,-0.0844,-0.0628,-0.0556,-0.0458,-0.0333,-0.0271,-0.0174,-0.0132,-0.0096,-0.0065,-0.0075,-0.0066,-0.0063,-0.0084,-0.0086,-0.0123,-0.0126,-0.0215,-0.0226,-0.0087,-0.0087,-0.0087,-0.0087,-0.0087,0,-0.1123,-0.1019,-0.0877,-0.0695,-0.0653,-0.0562,-0.0427,-0.0335,-0.0243,-0.019,-0.0139,-0.0117,-0.0073,-0.0065,-0.0061,-0.0055,-0.0058,-0.0062,-0.0065,-0.0118,-0.0142,-0.0262,-0.0242,-0.0118,-0.0118,-0.0117,-0.0117,0,-0.1116,-0.098,-0.0892,-0.075,-0.0668,-0.0565,-0.0471,-0.0382,-0.0312,-0.0244,-0.0209,-0.0141,-0.0125,-0.0087,-0.0067,-0.0061,-0.0053,-0.0037,-0.0114,-0.0117,-0.0149,-0.0106,-0.0172,-0.0235,-0.0115,-0.0115,-0.0115,0,-0.1138,-0.096,-0.0948,-0.0874,-0.0729,-0.0675,-0.056,-0.0472,-0.0424,-0.0325,-0.0274,-0.0159,-0.0155,-0.0124,-0.0097,-0.008,-0.0053,-0.0093,-0.0095,-0.013,-0.0078,-0.0101,-0.0106,-0.0049,-0.0049,-0.0049,-0.0113,0,-0.1056,-0.0987,-0.0953,-0.0856,-0.0784,-0.0714,-0.0633,-0.0557,-0.0501,-0.0462,-0.0366,-0.0301,-0.0234,-0.0188,-0.0171,-0.011,-0.0142,-0.0146,-0.0182,-0.0134,-0.017,-0.0171,-0.0179,-0.018,-0.0181,-0.0182,0,0,-0.1099,-0.105,-0.1016,-0.0945,-0.089,-0.0841,-0.0768,-0.0711,-0.0605,-0.0575,-0.055,-0.0414,-0.0352,-0.0277,-0.0236,-0.0208,-0.023,-0.0201,-0.0152,-0.0148,-0.0145,-0.0177,-0.0177,-0.0184,-0.0185,-0.0185,-0.0186,0,-0.1102,-0.1074,-0.104,-0.0979,-0.0902,-0.0863,-0.0837,-0.0754,-0.0709,-0.0604,-0.0585,-0.0512,-0.039,-0.0351,-0.032,-0.0231,-0.0248,-0.0198,-0.0162,-0.0162,-0.0156,-0.0152,-0.0182,-0.0181,-0.0189,-0.0188,-0.0188,0,-0.1121,-0.1093,-0.1082,-0.1016,-0.0971,-0.0901,-0.0909,-0.0838,-0.0777,-0.0758,-0.0638,-0.0594,-0.0545,-0.0442,-0.0392,-0.0408,-0.0289,-0.029,-0.0284,-0.03,-0.0303,-0.0296,-0.029,-0.0371,-0.0371,-0.0372,0,0,-0.112,-0.1096,-0.1047,-0.1017,-0.0986,-0.0935,-0.0899,-0.0862,-0.0803,-0.0768,-0.0699,-0.0635,-0.0573,-0.0521,-0.0459,-0.0366,-0.0395,-0.0311,-0.0302,-0.0295,-0.0306,-0.0307,-0.03,-0.0373,-0.0373,-0.0373,0,0,-0.1121,-0.1084,-0.1073,-0.1039,-0.0983,-0.0931,-0.0889,-0.0865,-0.079,-0.0776,-0.0729,-0.0708,-0.0601,-0.0578,-0.0608,-0.0449,-0.0488,-0.048,-0.0446,-0.0434,-0.0426,-0.0455,-0.0592,0,0,0,0,0,-0.1117,-0.1095,-0.1086,-0.1076,-0.1009,-0.0944,-0.0929,-0.0881,-0.0877,-0.0832,-0.078,-0.0757,-0.0586,-0.0611,-0.059,-0.0518,-0.0395,-0.0391,-0.0387,-0.0322,-0.0311,-0.0301,0,0,0,0,0,0,-0.1114,-0.1104,-0.1086,-0.1042,-0.1026,-0.0945,-0.0948,-0.0934,-0.0879,-0.0872,-0.0772,-0.0755,-0.072,-0.0619,-0.06,-0.0532,-0.0598,-0.0393,-0.039,-0.0387,-0.0318,-0.0309,-0.0301,0,0,0,0,0,-0.1111,-0.1103,-0.1012,-0.104,-0.1026,-0.0961,-0.0948,-0.0936,-0.0879,-0.0817,-0.0799,-0.0842,-0.0722,-0.0701,-0.0607,-0.0541,-0.0611,-0.0604,-0.0391,-0.0389,-0.0386,-0.0313,0,0,0,0,0,0,-0.1108,-0.108,-0.1007,-0.1,-0.1042,-0.0962,-0.0949,-0.0938,-0.0825,-0.0809,-0.0888,-0.0884,-0.0723,-0.0707,-0.0691,-0.0545,-0.0621,-0.0614,-0.061,-0.0389,-0.0387,-0.0385,0,0,0,0,0,0,-0.1084,-0.1075,-0.1003,-0.1008,-0.1001,-0.0963,-0.0952,-0.0884,-0.0823,-0.09,-0.0895,-0.0888,-0.0737,-0.0711,-0.0698,-0.0594,-0.0629,-0.0622,-0.0618,-0.0615,-0.0388,-0.0386,0,0,0,0,0,0,-0.1079,-0.107,-0.1009,-0.1004,-0.0997,-0.0913,-0.0898,-0.0823,-0.0855,-0.0905,-0.0854,-0.0854,-0.0741,-0.0728,-0.0703,-0.0605,-0.0597,-0.0628,-0.0624,-0.0621,-0.0619,0,0,0,0,0,0,0,-0.1074,-0.1147,-0.1053,-0.1,-0.0995,-0.0937,-0.0935,-0.0933,-0.0855,-0.0855,-0.0854,-0.0854,-0.0666,-0.0659,-0.0651,-0.0614,0,0,-0.0629,-0.0626,0,0,0,0,0,0,0,0,-0.1149,-0.1147,-0.1053,-0.1052,-0.105,-0.0937,-0.0935,-0.0933,-0.0855,-0.0855,-0.0855,-0.0854,-0.0664,-0.0658,-0.0652,0,0,0,0,0,0,0,0,0,0,0,0,0,0,0,-0.1053,-0.1052,0,-0.0937,-0.0935,-0.0933,-0.0855,-0.0855,-0.0855,-0.0854,-0.0662,-0.0658,-0.0653,0,0,0,0,0,0,0,0,0,0,0,0,0,0,0,0,0,0,0,0,0,0,0,0,0,0,0,0,0,0,0,0,0,0,0,0,0,0,0,0,0,0,0,0,0,0,0,0,0,0,0,0,0,0,0,0,0,0,0,0,0,0,0,0,0,0,0,0,0]}]],[[{"header":{"parameterUnit":"kt","parameterCategory":2,"dx":1,"dy":1,"la1":30.253999710083008,"la2":30.299108505249023,"lo1":-89.0895004272461,"lo2":-89.04439544677734,"nx":28,"ny":28,"refTime":"2022-09-22T21:00:00:Z","depth":"4","parameterNumber":2,"parameterNumberName":"U-component_of_CURRENTS"},"data":[-0.0055,-0.0042,-0.0013,0.0027,0.0056,0.0073,0.0082,0.0073,0.0088,0.007,0.0129,0.0129,0.0244,0.0165,0.0366,0.039,0.0238,0.0532,0.0535,0.0223,0.0199,0.0178,0.0082,0,0,0,0,0,-0.0045,-0.0025,-0.0017,0.0008,0.002,0.0027,0.0012,-0.0007,-0.0021,0.0021,0.0004,0.0093,0.0222,0.026,0.0362,0.0367,0.0298,0.0491,0.0225,0.0208,0.0182,0.0098,0,0,0,0,0,0,-0.003,-0.0016,-0.0013,-0.001,-0.0011,0.0006,-0.001,-0.0011,-0.0024,-0.0042,-0.0003,0.0049,0.0051,0.018,0.0313,0.0401,0.0272,0.0218,0.0192,0.0167,0.0109,0.0208,0.0486,0,0,0,0,0,-0.0023,-0.0012,-0.0018,-0.0021,-0.0029,-0.0041,-0.0062,-0.0058,-0.0102,-0.0141,-0.0093,-0.0044,0.0057,0.0092,0.0252,0.0262,0.0117,0.0216,0.0194,-0.0119,-0.0053,-0.0058,-0.0082,0.0081,0.0078,0.0076,0.0074,0,-0.0016,-0.0015,-0.0023,-0.003,-0.0045,-0.0069,-0.0089,-0.0136,-0.0153,-0.017,-0.0161,-0.0135,-0.0148,0.0047,0.0013,0.0113,0.0052,0.0151,-0.0182,-0.0097,-0.0091,-0.011,-0.0126,0.0053,0.0055,0.0056,0.0058,0,-0.0019,-0.0033,-0.0036,-0.0066,-0.0073,-0.0082,-0.0128,-0.0145,-0.0193,-0.0208,-0.0236,-0.028,-0.0245,-0.0217,-0.0255,-0.0235,-0.0188,-0.0142,-0.0278,-0.0271,-0.016,-0.0168,0.0018,0.0026,0.0032,0.0038,0.0042,0,-0.0046,-0.0049,-0.0073,-0.0083,-0.0087,-0.0123,-0.0143,-0.0166,-0.0205,-0.022,-0.0306,-0.0324,-0.0448,-0.0399,-0.0456,-0.0372,-0.044,-0.047,-0.0444,-0.0725,-0.0729,-0.0688,-0.069,-0.0697,-0.0699,-0.0701,-0.0702,0,-0.0072,-0.0088,-0.0093,-0.0099,-0.0134,-0.0138,-0.0158,-0.0194,-0.0216,-0.0269,-0.0293,-0.0373,-0.0439,-0.05,-0.0546,-0.0654,-0.0543,-0.0687,-0.0521,-0.0504,-0.0699,-0.0697,-0.0704,-0.0705,-0.0705,-0.0706,-0.0706,0,-0.0102,-0.0129,-0.0129,-0.015,-0.0156,-0.0158,-0.0186,-0.0203,-0.0232,-0.0264,-0.0335,-0.0404,-0.0507,-0.06,-0.0668,-0.0715,-0.0756,-0.0796,-0.079,-0.0592,-0.0583,-0.062,-0.0663,-0.0664,-0.0665,-0.0666,-0.0667,0,-0.0139,-0.0151,-0.017,-0.0169,-0.0173,-0.02,-0.021,-0.0229,-0.026,-0.0278,-0.0371,-0.0453,-0.0552,-0.0648,-0.0716,-0.0802,-0.0814,-0.0872,-0.0776,-0.0769,-0.0588,-0.0589,-0.092,-0.0682,-0.068,-0.0679,-0.0678,0,-0.0159,-0.0181,-0.0184,-0.0191,-0.0226,-0.0232,-0.0241,-0.0256,-0.0267,-0.0315,-0.0337,-0.0502,-0.0564,-0.0616,-0.073,-0.0792,-0.0821,-0.0844,-0.0844,-0.0715,-0.0798,-0.0625,-0.0598,-0.0917,-0.0918,-0.0918,-0.0689,0,-0.0187,-0.0195,-0.0201,-0.0225,-0.0239,-0.024,-0.026,-0.027,-0.0301,-0.0317,-0.0398,-0.0484,-0.0562,-0.0641,-0.0706,-0.0807,-0.0765,-0.0813,-0.0767,-0.0832,-0.0718,-0.071,-0.0784,-0.0782,-0.0781,-0.078,0,0,-0.0209,-0.0211,-0.0238,-0.0251,-0.0258,-0.0282,-0.0282,-0.0294,-0.0318,-0.0329,-0.0347,-0.0477,-0.0534,-0.0633,-0.0698,-0.0721,-0.0699,-0.0724,-0.0813,-0.0817,-0.0821,-0.0716,-0.071,-0.0778,-0.0778,-0.0777,-0.0777,0,-0.0216,-0.0237,-0.024,-0.0249,-0.0271,-0.0281,-0.0288,-0.0307,-0.0319,-0.0344,-0.0392,-0.0465,-0.0523,-0.058,-0.0619,-0.0702,-0.067,-0.0758,-0.0779,-0.0804,-0.0809,-0.0814,-0.0712,-0.0708,-0.0774,-0.0774,-0.0775,0,-0.023,-0.0253,-0.0247,-0.0269,-0.0281,-0.0282,-0.03,-0.031,-0.0313,-0.0339,-0.0358,-0.0417,-0.0468,-0.0534,-0.0563,-0.0547,-0.062,-0.0638,-0.0645,-0.0604,-0.0625,-0.0633,-0.064,-0.0544,-0.0544,-0.0543,0,0,-0.0248,-0.0256,-0.0266,-0.027,-0.0277,-0.0295,-0.0303,-0.0309,-0.0327,-0.0338,-0.0354,-0.0394,-0.0448,-0.0471,-0.0497,-0.0553,-0.0503,-0.061,-0.0621,-0.063,-0.0595,-0.0618,-0.0626,-0.054,-0.054,-0.054,0,0,-0.0247,-0.0261,-0.0267,-0.0273,-0.0279,-0.0291,-0.0299,-0.0313,-0.0337,-0.0343,-0.0358,-0.0362,-0.0417,-0.0423,-0.0382,-0.0512,-0.0468,-0.0476,-0.0507,-0.0521,-0.0532,-0.0481,-0.0372,0,0,0,0,0,-0.0255,-0.0258,-0.0264,-0.0266,-0.0283,-0.0289,-0.0293,-0.0303,-0.032,-0.0324,-0.0347,-0.0345,-0.0414,-0.0376,-0.0381,-0.0448,-0.0502,-0.0509,-0.0515,-0.0568,-0.0583,-0.0595,0,0,0,0,0,0,-0.0256,-0.0259,-0.0264,-0.0275,-0.0278,-0.029,-0.0296,-0.03,-0.0319,-0.032,-0.0342,-0.0345,-0.0345,-0.0374,-0.0378,-0.0443,-0.037,-0.0504,-0.051,-0.0515,-0.0573,-0.0585,-0.0595,0,0,0,0,0,-0.0257,-0.0259,-0.0283,-0.0275,-0.0278,-0.0292,-0.0296,-0.0299,-0.032,-0.0325,-0.0328,-0.0328,-0.0345,-0.035,-0.0376,-0.0442,-0.0367,-0.0369,-0.0508,-0.0513,-0.0517,-0.0579,0,0,0,0,0,0,-0.0257,-0.0267,-0.0284,-0.0285,-0.0272,-0.0292,-0.0295,-0.0299,-0.0324,-0.0328,-0.0309,-0.0309,-0.0345,-0.0349,-0.0352,-0.0443,-0.0365,-0.0367,-0.0368,-0.0512,-0.0515,-0.0518,0,0,0,0,0,0,-0.0266,-0.0268,-0.0285,-0.028,-0.0282,-0.0292,-0.0294,-0.031,-0.0325,-0.0308,-0.0309,-0.0309,-0.0339,-0.0348,-0.0351,-0.0376,-0.0363,-0.0365,-0.0366,-0.0367,-0.0514,-0.0517,0,0,0,0,0,0,-0.0267,-0.0269,-0.028,-0.0281,-0.0282,-0.0304,-0.0307,-0.0325,-0.0318,-0.0307,-0.0318,-0.0318,-0.0338,-0.0341,-0.035,-0.0374,-0.0375,-0.0363,-0.0364,-0.0365,-0.0366,0,0,0,0,0,0,0,-0.0268,-0.025,-0.0271,-0.0282,-0.0283,-0.03,-0.0301,-0.0301,-0.0318,-0.0318,-0.0318,-0.0318,-0.0355,-0.0356,-0.0358,-0.0372,0,0,-0.0363,-0.0364,0,0,0,0,0,0,0,0,-0.0249,-0.0249,-0.0271,-0.0271,-0.0272,-0.03,-0.0301,-0.0301,-0.0318,-0.0318,-0.0318,-0.0318,-0.0355,-0.0357,-0.0358,0,0,0,0,0,0,0,0,0,0,0,0,0,0,0,-0.0271,-0.0271,0,-0.03,-0.0301,-0.0301,-0.0318,-0.0318,-0.0318,-0.0318,-0.0356,-0.0357,-0.0358,0,0,0,0,0,0,0,0,0,0,0,0,0,0,0,0,0,0,0,0,0,0,0,0,0,0,0,0,0,0,0,0,0,0,0,0,0,0,0,0,0,0,0,0,0,0,0,0,0,0,0,0,0,0,0,0,0,0,0,0,0,0,0,0,0,0,0,0,0]}],[{"header":{"parameterUnit":"kt","parameterCategory":2,"dx":1,"dy":1,"la1":30.253999710083008,"la2":30.299108505249023,"lo1":-89.0895004272461,"lo2":-89.04439544677734,"nx":28,"ny":28,"refTime":"2022-09-22T21:00:00:Z","depth":"4","parameterNumber":3,"parameterNumberName":"V-component_of_CURRENTS"},"data":[-0.0667,-0.0674,-0.0689,-0.0698,-0.0706,-0.0728,-0.0727,-0.0711,-0.0651,-0.0617,-0.0586,-0.0586,-0.0561,-0.0553,-0.0553,-0.0562,-0.0739,-0.0615,-0.0615,-0.0935,-0.0952,-0.0967,-0.1047,0,0,0,0,0,-0.0685,-0.07,-0.0698,-0.0701,-0.0723,-0.0738,-0.0732,-0.0748,-0.0731,-0.0627,-0.0659,-0.0577,-0.0564,-0.0552,-0.0555,-0.0609,-0.0776,-0.0618,-0.0892,-0.0945,-0.0964,-0.1036,0,0,0,0,0,0,-0.0722,-0.0719,-0.0737,-0.0735,-0.0752,-0.0756,-0.0768,-0.0756,-0.0757,-0.0748,-0.0659,-0.0657,-0.0668,-0.0672,-0.0628,-0.0654,-0.0737,-0.082,-0.0844,-0.0863,-0.0897,-0.0854,-0.0556,0,0,0,0,0,-0.076,-0.0774,-0.0788,-0.0782,-0.08,-0.0823,-0.0863,-0.0836,-0.0904,-0.0932,-0.0825,-0.0827,-0.0758,-0.079,-0.0776,-0.0792,-0.1037,-0.0962,-0.0977,-0.1186,-0.1173,-0.1162,-0.1182,-0.1036,-0.1038,-0.104,-0.1041,0,-0.0814,-0.0814,-0.0841,-0.0845,-0.0878,-0.0926,-0.0953,-0.1037,-0.1043,-0.1046,-0.1008,-0.1005,-0.1032,-0.0899,-0.0999,-0.099,-0.1035,-0.1009,-0.1231,-0.1205,-0.1185,-0.1202,-0.1217,-0.1056,-0.1055,-0.1053,-0.1052,0,-0.0836,-0.088,-0.0888,-0.0947,-0.0963,-0.0984,-0.106,-0.1083,-0.1161,-0.1151,-0.1181,-0.1241,-0.1206,-0.126,-0.1271,-0.1301,-0.1257,-0.122,-0.1362,-0.1339,-0.1239,-0.1248,-0.1081,-0.1075,-0.1071,-0.1067,-0.1063,0,-0.0887,-0.0911,-0.0973,-0.0978,-0.0993,-0.1073,-0.1108,-0.1154,-0.1219,-0.1214,-0.1353,-0.133,-0.1484,-0.1453,-0.1504,-0.1433,-0.1463,-0.1481,-0.1443,-0.1655,-0.1661,-0.1584,-0.1583,-0.1606,-0.1607,-0.1609,-0.161,0,-0.0896,-0.0967,-0.0993,-0.101,-0.1067,-0.1096,-0.115,-0.1213,-0.1241,-0.1331,-0.1352,-0.1441,-0.1497,-0.1532,-0.1583,-0.1659,-0.1552,-0.163,-0.1507,-0.1496,-0.1592,-0.1589,-0.1611,-0.1612,-0.1612,-0.1613,-0.1613,0,-0.0938,-0.0961,-0.101,-0.1041,-0.1056,-0.1107,-0.115,-0.1218,-0.1283,-0.134,-0.1427,-0.1495,-0.1586,-0.1669,-0.1695,-0.1741,-0.1756,-0.1769,-0.1761,-0.1586,-0.1557,-0.1568,-0.1646,-0.1647,-0.1649,-0.165,-0.1651,0,-0.0909,-0.0963,-0.0993,-0.1049,-0.1064,-0.1114,-0.1165,-0.1229,-0.1301,-0.1356,-0.1454,-0.1543,-0.1646,-0.1723,-0.1773,-0.18,-0.1807,-0.1867,-0.1697,-0.1689,-0.1557,-0.1597,-0.1855,-0.1669,-0.1666,-0.1665,-0.1664,0,-0.0872,-0.092,-0.0935,-0.0946,-0.1029,-0.1059,-0.1137,-0.1195,-0.1222,-0.1367,-0.1406,-0.1592,-0.164,-0.1677,-0.1754,-0.1788,-0.1822,-0.1809,-0.1804,-0.1707,-0.1746,-0.163,-0.1608,-0.1858,-0.1857,-0.1857,-0.1676,0,-0.0848,-0.0879,-0.0902,-0.0952,-0.0992,-0.1046,-0.1101,-0.1166,-0.1241,-0.1288,-0.1406,-0.1504,-0.1577,-0.1655,-0.1705,-0.1777,-0.1737,-0.1738,-0.166,-0.1745,-0.1654,-0.1646,-0.1711,-0.1708,-0.1706,-0.1705,0,0,-0.0801,-0.0827,-0.0842,-0.0883,-0.0909,-0.0963,-0.1009,-0.1065,-0.1171,-0.1197,-0.1249,-0.1403,-0.1465,-0.1545,-0.1627,-0.1656,-0.162,-0.1651,-0.1723,-0.1726,-0.1728,-0.1646,-0.164,-0.1701,-0.17,-0.1699,-0.1698,0,-0.0777,-0.0793,-0.0817,-0.0852,-0.0913,-0.094,-0.0968,-0.1041,-0.1087,-0.1199,-0.1221,-0.1313,-0.1429,-0.146,-0.1491,-0.1623,-0.1558,-0.1676,-0.1728,-0.1707,-0.1712,-0.1717,-0.1638,-0.1635,-0.1693,-0.1693,-0.1694,0,-0.0739,-0.0756,-0.0763,-0.0813,-0.0848,-0.0891,-0.0896,-0.0966,-0.1017,-0.1033,-0.1137,-0.1197,-0.1237,-0.1347,-0.1397,-0.1365,-0.1476,-0.1492,-0.1504,-0.146,-0.1431,-0.1439,-0.1447,-0.1339,-0.1338,-0.1337,0,0,-0.0726,-0.0741,-0.0773,-0.081,-0.0828,-0.0874,-0.0907,-0.0942,-0.0998,-0.1031,-0.108,-0.1137,-0.12,-0.1246,-0.1292,-0.1391,-0.1318,-0.1452,-0.1469,-0.1482,-0.1447,-0.1422,-0.1431,-0.1334,-0.1334,-0.1333,0,0,-0.0721,-0.0735,-0.0745,-0.0779,-0.0825,-0.0864,-0.09,-0.093,-0.1003,-0.1022,-0.1039,-0.1053,-0.1162,-0.1165,-0.1117,-0.1287,-0.1215,-0.1225,-0.1299,-0.132,-0.1336,-0.128,-0.1077,0,0,0,0,0,-0.0703,-0.0727,-0.0735,-0.0744,-0.0801,-0.0856,-0.0867,-0.0902,-0.0916,-0.0956,-0.1008,-0.0992,-0.1147,-0.1104,-0.1117,-0.1199,-0.1288,-0.1296,-0.1304,-0.1421,-0.1443,-0.1461,0,0,0,0,0,0,-0.0707,-0.0715,-0.0735,-0.0768,-0.0782,-0.0854,-0.0843,-0.0854,-0.0913,-0.0918,-0.0984,-0.0992,-0.0996,-0.1097,-0.1109,-0.1187,-0.1073,-0.1291,-0.1298,-0.1304,-0.1428,-0.1446,-0.1461,0,0,0,0,0,-0.0709,-0.0717,-0.0796,-0.0769,-0.0781,-0.083,-0.0843,-0.0852,-0.0913,-0.0933,-0.0945,-0.0942,-0.0996,-0.1009,-0.1104,-0.1183,-0.1065,-0.1069,-0.1296,-0.1301,-0.1306,-0.1437,0,0,0,0,0,0,-0.0711,-0.0734,-0.0799,-0.0805,-0.0765,-0.0829,-0.0839,-0.0851,-0.0927,-0.0938,-0.0887,-0.0889,-0.0995,-0.1006,-0.1016,-0.1183,-0.1058,-0.1063,-0.1065,-0.13,-0.1304,-0.1308,0,0,0,0,0,0,-0.073,-0.0739,-0.0802,-0.0794,-0.08,-0.0828,-0.0837,-0.0883,-0.0928,-0.0877,-0.0881,-0.0887,-0.0981,-0.1003,-0.1011,-0.1082,-0.1053,-0.1057,-0.106,-0.1062,-0.1303,-0.1306,0,0,0,0,0,0,-0.0735,-0.0742,-0.0793,-0.0797,-0.0802,-0.087,-0.0871,-0.093,-0.0912,-0.0874,-0.0912,-0.0912,-0.0978,-0.0987,-0.1008,-0.1075,-0.108,-0.1053,-0.1056,-0.1058,-0.106,0,0,0,0,0,0,0,-0.0739,-0.0678,-0.0762,-0.08,-0.0804,-0.0856,-0.0858,-0.086,-0.0912,-0.0912,-0.0912,-0.0912,-0.1029,-0.1033,-0.1038,-0.107,0,0,-0.1053,-0.1055,0,0,0,0,0,0,0,0,-0.0676,-0.0677,-0.0762,-0.0763,-0.0764,-0.0856,-0.0858,-0.0859,-0.0912,-0.0912,-0.0912,-0.0912,-0.103,-0.1034,-0.1038,0,0,0,0,0,0,0,0,0,0,0,0,0,0,0,-0.0763,-0.0763,0,-0.0856,-0.0858,-0.0859,-0.0912,-0.0912,-0.0912,-0.0912,-0.1031,-0.1034,-0.1037,0,0,0,0,0,0,0,0,0,0,0,0,0,0,0,0,0,0,0,0,0,0,0,0,0,0,0,0,0,0,0,0,0,0,0,0,0,0,0,0,0,0,0,0,0,0,0,0,0,0,0,0,0,0,0,0,0,0,0,0,0,0,0,0,0,0,0,0,0]}]]]